2019,12,06,00,00,00,94.7,,,,,,,,,,,,,,
2019,12,06,00,01,00,81.6,,,,,,,,,,,,,,
2019,12,06,00,02,00,79.3,,,,,,,,,,,,,,
2019,12,06,00,03,00,78.0,,,,,,,,,,,,,,
2019,12,06,00,04,00,78.8,,,,,,,,,,,,,,
2019,12,06,00,05,00,82.1,,,,,,,,,,,,,,
2019,12,06,00,06,00,81.8,,,,,,,,,,,,,,
2019,12,06,00,07,00,80.5,,,,,,,,,,,,,,
2019,12,06,00,08,00,79.3,,,,,,,,,,,,,,
2019,12,06,00,09,00,82.7,,,,,,,,,,,,,,
2019,12,06,00,10,00,100.0,,,,,,,,,,,,,,
2019,12,06,00,11,00,98.7,,,,,,,,,,,,,,
2019,12,06,00,12,00,82.8,,,,,,,,,,,,,,
2019,12,06,00,13,00,80.9,,,,,,,,,,,,,,
2019,12,06,00,14,00,79.1,,,,,,,,,,,,,,
2019,12,06,00,15,00,80.5,,,,,,,,,,,,,,
2019,12,06,00,16,00,80.5,,,,,,,,,,,,,,
2019,12,06,00,17,00,79.9,,,,,,,,,,,,,,
2019,12,06,00,18,00,79.5,,,,,,,,,,,,,,
2019,12,06,00,19,00,79.1,,,,,,,,,,,,,,
2019,12,06,00,20,00,79.8,,,,,,,,,,,,,,
2019,12,06,00,21,00,78.7,,,,,,,,,,,,,,
2019,12,06,00,22,00,77.2,,,,,,,,,,,,,,
2019,12,06,00,23,00,78.9,,,,,,,,,,,,,,
2019,12,06,00,24,00,78.6,,,,,,,,,,,,,,
2019,12,06,00,25,00,79.4,,,,,,,,,,,,,,
2019,12,06,00,26,00,81.7,,,,,,,,,,,,,,
2019,12,06,00,27,00,80.0,,,,,,,,,,,,,,
2019,12,06,00,28,00,77.1,,,,,,,,,,,,,,
2019,12,06,00,29,00,80.6,,,,,,,,,,,,,,
2019,12,06,00,30,00,82.0,,,,,,,,,,,,,,
2019,12,06,00,31,00,78.2,,,,,,,,,,,,,,
2019,12,06,00,32,00,80.7,,,,,,,,,,,,,,
2019,12,06,00,33,00,80.6,,,,,,,,,,,,,,
2019,12,06,00,34,00,82.9,,,,,,,,,,,,,,
2019,12,06,00,35,00,105.1,,,,,,,,,,,,,,
2019,12,06,00,36,00,103.0,,,,,,,,,,,,,,
2019,12,06,00,37,00,86.9,,,,,,,,,,,,,,
2019,12,06,00,38,00,80.4,,,,,,,,,,,,,,
2019,12,06,00,39,00,80.8,,,,,,,,,,,,,,
2019,12,06,00,40,00,80.6,,,,,,,,,,,,,,
2019,12,06,00,41,00,80.3,,,,,,,,,,,,,,
2019,12,06,00,42,00,78.4,,,,,,,,,,,,,,
2019,12,06,00,43,00,79.2,,,,,,,,,,,,,,
2019,12,06,00,44,00,75.9,,,,,,,,,,,,,,
2019,12,06,00,45,00,76.4,,,,,,,,,,,,,,
2019,12,06,00,46,00,76.4,,,,,,,,,,,,,,
2019,12,06,00,47,00,77.5,,,,,,,,,,,,,,
2019,12,06,00,48,00,78.8,,,,,,,,,,,,,,
2019,12,06,00,49,00,78.6,,,,,,,,,,,,,,
2019,12,06,00,50,00,78.5,,,,,,,,,,,,,,
2019,12,06,00,51,00,75.6,,,,,,,,,,,,,,
2019,12,06,00,52,00,76.2,,,,,,,,,,,,,,
2019,12,06,00,53,00,80.7,,,,,,,,,,,,,,
2019,12,06,00,54,00,77.8,,,,,,,,,,,,,,
2019,12,06,00,55,00,74.4,,,,,,,,,,,,,,
2019,12,06,00,56,00,73.1,,,,,,,,,,,,,,
2019,12,06,00,57,00,75.4,,,,,,,,,,,,,,
2019,12,06,00,58,00,73.5,,,,,,,,,,,,,,
2019,12,06,00,59,00,72.6,,,,,,,,,,,,,,
2019,12,06,01,00,00,73.5,,,,,,,,,,,,,,
2019,12,06,01,01,00,73.8,,,,,,,,,,,,,,
2019,12,06,01,02,00,73.4,,,,,,,,,,,,,,
2019,12,06,01,03,00,71.5,,,,,,,,,,,,,,
2019,12,06,01,04,00,69.3,,,,,,,,,,,,,,
2019,12,06,01,05,00,70.1,,,,,,,,,,,,,,
2019,12,06,01,06,00,69.5,,,,,,,,,,,,,,
2019,12,06,01,07,00,77.4,,,,,,,,,,,,,,
2019,12,06,01,08,00,79.3,,,,,,,,,,,,,,
2019,12,06,01,09,00,79.1,,,,,,,,,,,,,,
2019,12,06,01,10,00,77.7,,,,,,,,,,,,,,
2019,12,06,01,11,00,77.3,,,,,,,,,,,,,,
2019,12,06,01,12,00,75.8,,,,,,,,,,,,,,
2019,12,06,01,13,00,75.3,,,,,,,,,,,,,,
2019,12,06,01,14,00,73.3,,,,,,,,,,,,,,
2019,12,06,01,15,00,72.5,,,,,,,,,,,,,,
2019,12,06,01,16,00,72.9,,,,,,,,,,,,,,
2019,12,06,01,17,00,72.9,,,,,,,,,,,,,,
2019,12,06,01,18,00,70.7,,,,,,,,,,,,,,
2019,12,06,01,19,00,66.8,,,,,,,,,,,,,,
2019,12,06,01,20,00,68.7,,,,,,,,,,,,,,
2019,12,06,01,21,00,69.9,,,,,,,,,,,,,,
2019,12,06,01,22,00,69.6,,,,,,,,,,,,,,
2019,12,06,01,23,00,72.7,,,,,,,,,,,,,,
2019,12,06,01,24,00,76.4,,,,,,,,,,,,,,
2019,12,06,01,25,00,75.2,,,,,,,,,,,,,,
2019,12,06,01,26,00,74.3,,,,,,,,,,,,,,
2019,12,06,01,27,00,73.9,,,,,,,,,,,,,,
2019,12,06,01,28,00,76.1,,,,,,,,,,,,,,
2019,12,06,01,29,00,76.1,,,,,,,,,,,,,,
2019,12,06,01,30,00,74.3,,,,,,,,,,,,,,
2019,12,06,01,31,00,76.8,,,,,,,,,,,,,,
2019,12,06,01,32,00,74.7,,,,,,,,,,,,,,
2019,12,06,01,33,00,69.7,,,,,,,,,,,,,,
2019,12,06,01,34,00,69.3,,,,,,,,,,,,,,
2019,12,06,01,35,00,65.7,,,,,,,,,,,,,,
2019,12,06,01,36,00,66.7,,,,,,,,,,,,,,
2019,12,06,01,37,00,66.3,,,,,,,,,,,,,,
2019,12,06,01,38,00,69.0,,,,,,,,,,,,,,
2019,12,06,01,39,00,69.8,,,,,,,,,,,,,,
2019,12,06,01,40,00,72.3,,,,,,,,,,,,,,
2019,12,06,01,41,00,79.5,,,,,,,,,,,,,,
2019,12,06,01,42,00,74.3,,,,,,,,,,,,,,
2019,12,06,01,43,00,67.4,,,,,,,,,,,,,,
2019,12,06,01,44,00,65.6,,,,,,,,,,,,,,
2019,12,06,01,45,00,68.6,,,,,,,,,,,,,,
2019,12,06,01,46,00,67.3,,,,,,,,,,,,,,
2019,12,06,01,47,00,78.7,,,,,,,,,,,,,,
2019,12,06,01,48,00,87.4,,,,,,,,,,,,,,
2019,12,06,01,49,00,79.4,,,,,,,,,,,,,,
2019,12,06,01,50,00,79.3,,,,,,,,,,,,,,
2019,12,06,01,51,00,78.1,,,,,,,,,,,,,,
2019,12,06,01,52,00,67.7,,,,,,,,,,,,,,
2019,12,06,01,53,00,70.5,,,,,,,,,,,,,,
2019,12,06,01,54,00,80.4,,,,,,,,,,,,,,
2019,12,06,01,55,00,81.0,,,,,,,,,,,,,,
2019,12,06,01,56,00,80.7,,,,,,,,,,,,,,
2019,12,06,01,57,00,73.0,,,,,,,,,,,,,,
2019,12,06,01,58,00,71.9,,,,,,,,,,,,,,
2019,12,06,01,59,00,73.4,,,,,,,,,,,,,,
2019,12,06,02,00,00,74.9,,,,,,,,,,,,,,
2019,12,06,02,01,00,77.3,,,,,,,,,,,,,,
2019,12,06,02,02,00,76.6,,,,,,,,,,,,,,
2019,12,06,02,03,00,70.6,,,,,,,,,,,,,,
2019,12,06,02,04,00,71.4,,,,,,,,,,,,,,
2019,12,06,02,05,00,76.8,,,,,,,,,,,,,,
2019,12,06,02,06,00,75.7,,,,,,,,,,,,,,
2019,12,06,02,07,00,72.2,,,,,,,,,,,,,,
2019,12,06,02,08,00,71.0,,,,,,,,,,,,,,
2019,12,06,02,09,00,67.9,,,,,,,,,,,,,,
2019,12,06,02,10,00,63.7,,,,,,,,,,,,,,
2019,12,06,02,11,00,64.8,,,,,,,,,,,,,,
2019,12,06,02,12,00,65.7,,,,,,,,,,,,,,
2019,12,06,02,13,00,63.7,,,,,,,,,,,,,,
2019,12,06,02,14,00,66.6,,,,,,,,,,,,,,
2019,12,06,02,15,00,73.1,,,,,,,,,,,,,,
2019,12,06,02,16,00,81.8,,,,,,,,,,,,,,
2019,12,06,02,17,00,72.3,,,,,,,,,,,,,,
2019,12,06,02,18,00,66.4,,,,,,,,,,,,,,
2019,12,06,02,19,00,63.4,,,,,,,,,,,,,,
2019,12,06,02,20,00,72.4,,,,,,,,,,,,,,
2019,12,06,02,21,00,78.2,,,,,,,,,,,,,,
2019,12,06,02,22,00,74.5,,,,,,,,,,,,,,
2019,12,06,02,23,00,73.8,,,,,,,,,,,,,,
2019,12,06,02,24,00,69.0,,,,,,,,,,,,,,
2019,12,06,02,25,00,70.3,,,,,,,,,,,,,,
2019,12,06,02,26,00,69.2,,,,,,,,,,,,,,
2019,12,06,02,27,00,67.9,,,,,,,,,,,,,,
2019,12,06,02,28,00,71.7,,,,,,,,,,,,,,
2019,12,06,02,29,00,71.1,,,,,,,,,,,,,,
2019,12,06,02,30,00,68.7,,,,,,,,,,,,,,
2019,12,06,02,31,00,63.3,,,,,,,,,,,,,,
2019,12,06,02,32,00,67.8,,,,,,,,,,,,,,
2019,12,06,02,33,00,69.6,,,,,,,,,,,,,,
2019,12,06,02,34,00,73.3,,,,,,,,,,,,,,
2019,12,06,02,35,00,68.8,,,,,,,,,,,,,,
2019,12,06,02,36,00,72.9,,,,,,,,,,,,,,
2019,12,06,02,37,00,72.7,,,,,,,,,,,,,,
2019,12,06,02,38,00,72.9,,,,,,,,,,,,,,
2019,12,06,02,39,00,68.4,,,,,,,,,,,,,,
2019,12,06,02,40,00,66.9,,,,,,,,,,,,,,
2019,12,06,02,41,00,69.6,,,,,,,,,,,,,,
2019,12,06,02,42,00,72.6,,,,,,,,,,,,,,
2019,12,06,02,43,00,103.5,,,,,,,,,,,,,,
2019,12,06,02,44,00,88.9,,,,,,,,,,,,,,
2019,12,06,02,45,00,86.0,,,,,,,,,,,,,,
2019,12,06,02,46,00,88.0,,,,,,,,,,,,,,
2019,12,06,02,47,00,76.4,,,,,,,,,,,,,,
2019,12,06,02,48,00,72.8,,,,,,,,,,,,,,
2019,12,06,02,49,00,76.1,,,,,,,,,,,,,,
2019,12,06,02,50,00,80.1,,,,,,,,,,,,,,
2019,12,06,02,51,00,73.8,,,,,,,,,,,,,,
2019,12,06,02,52,00,69.6,,,,,,,,,,,,,,
2019,12,06,02,53,00,75.0,,,,,,,,,,,,,,
2019,12,06,02,54,00,77.0,,,,,,,,,,,,,,
2019,12,06,02,55,00,80.2,,,,,,,,,,,,,,
2019,12,06,02,56,00,76.5,,,,,,,,,,,,,,
2019,12,06,02,57,00,73.1,,,,,,,,,,,,,,
2019,12,06,02,58,00,71.5,,,,,,,,,,,,,,
2019,12,06,02,59,00,72.2,,,,,,,,,,,,,,
2019,12,06,03,00,00,71.3,,,,,,,,,,,,,,
2019,12,06,03,01,00,70.7,,,,,,,,,,,,,,
2019,12,06,03,02,00,74.5,,,,,,,,,,,,,,
2019,12,06,03,03,00,77.7,,,,,,,,,,,,,,
2019,12,06,03,04,00,78.0,,,,,,,,,,,,,,
2019,12,06,03,05,00,75.8,,,,,,,,,,,,,,
2019,12,06,03,06,00,82.9,,,,,,,,,,,,,,
2019,12,06,03,07,00,101.2,,,,,,,,,,,,,,
2019,12,06,03,08,00,83.2,,,,,,,,,,,,,,
2019,12,06,03,09,00,75.4,,,,,,,,,,,,,,
2019,12,06,03,10,00,72.2,,,,,,,,,,,,,,
2019,12,06,03,11,00,72.8,,,,,,,,,,,,,,
2019,12,06,03,12,00,74.3,,,,,,,,,,,,,,
2019,12,06,03,13,00,74.8,,,,,,,,,,,,,,
2019,12,06,03,14,00,72.7,,,,,,,,,,,,,,
2019,12,06,03,15,00,74.5,,,,,,,,,,,,,,
2019,12,06,03,16,00,74.8,,,,,,,,,,,,,,
2019,12,06,03,17,00,72.4,,,,,,,,,,,,,,
2019,12,06,03,18,00,77.2,,,,,,,,,,,,,,
2019,12,06,03,19,00,80.2,,,,,,,,,,,,,,
2019,12,06,03,20,00,80.2,,,,,,,,,,,,,,
2019,12,06,03,21,00,78.3,,,,,,,,,,,,,,
2019,12,06,03,22,00,73.2,,,,,,,,,,,,,,
2019,12,06,03,23,00,76.0,,,,,,,,,,,,,,
2019,12,06,03,24,00,80.6,,,,,,,,,,,,,,
2019,12,06,03,25,00,80.3,,,,,,,,,,,,,,
2019,12,06,03,26,00,79.4,,,,,,,,,,,,,,
2019,12,06,03,27,00,78.5,,,,,,,,,,,,,,
2019,12,06,03,28,00,83.1,,,,,,,,,,,,,,
2019,12,06,03,29,00,87.2,,,,,,,,,,,,,,
2019,12,06,03,30,00,85.1,,,,,,,,,,,,,,
2019,12,06,03,31,00,89.7,,,,,,,,,,,,,,
2019,12,06,03,32,00,98.1,,,,,,,,,,,,,,
2019,12,06,03,33,00,,,,,,,,,,,,,,,
2019,12,06,03,34,00,,,,,,,,,,,,,,,
2019,12,06,03,35,00,94.1,,,,,,,,,,,,,,
2019,12,06,03,36,00,81.9,,,,,,,,,,,,,,
2019,12,06,03,37,00,82.1,,,,,,,,,,,,,,
2019,12,06,03,38,00,98.2,,,,,,,,,,,,,,
2019,12,06,03,39,00,90.2,,,,,,,,,,,,,,
2019,12,06,03,40,00,82.9,,,,,,,,,,,,,,
2019,12,06,03,41,00,83.4,,,,,,,,,,,,,,
2019,12,06,03,42,00,83.0,,,,,,,,,,,,,,
2019,12,06,03,43,00,82.1,,,,,,,,,,,,,,
2019,12,06,03,44,00,85.3,,,,,,,,,,,,,,
2019,12,06,03,45,00,89.1,,,,,,,,,,,,,,
2019,12,06,03,46,00,91.9,,,,,,,,,,,,,,
2019,12,06,03,47,00,103.4,,,,,,,,,,,,,,
2019,12,06,03,48,00,107.4,,,,,,,,,,,,,,
2019,12,06,03,49,00,112.0,,,,,,,,,,,,,,
2019,12,06,03,50,00,97.3,,,,,,,,,,,,,,
2019,12,06,03,51,00,83.2,,,,,,,,,,,,,,
2019,12,06,03,52,00,88.7,,,,,,,,,,,,,,
2019,12,06,03,53,00,77.8,,,,,,,,,,,,,,
2019,12,06,03,54,00,76.6,,,,,,,,,,,,,,
2019,12,06,03,55,00,77.3,,,,,,,,,,,,,,
2019,12,06,03,56,00,79.0,,,,,,,,,,,,,,
2019,12,06,03,57,00,78.6,,,,,,,,,,,,,,
2019,12,06,03,58,00,79.5,,,,,,,,,,,,,,
2019,12,06,03,59,00,80.5,,,,,,,,,,,,,,
2019,12,06,04,00,00,86.7,,,,,,,,,,,,,,
2019,12,06,04,01,00,82.6,,,,,,,,,,,,,,
2019,12,06,04,02,00,80.6,,,,,,,,,,,,,,
2019,12,06,04,03,00,80.3,,,,,,,,,,,,,,
2019,12,06,04,04,00,79.0,,,,,,,,,,,,,,
2019,12,06,04,05,00,78.1,,,,,,,,,,,,,,
2019,12,06,04,06,00,76.2,,,,,,,,,,,,,,
2019,12,06,04,07,00,77.7,,,,,,,,,,,,,,
2019,12,06,04,08,00,78.1,,,,,,,,,,,,,,
2019,12,06,04,09,00,77.0,,,,,,,,,,,,,,
2019,12,06,04,10,00,77.0,,,,,,,,,,,,,,
2019,12,06,04,11,00,77.0,,,,,,,,,,,,,,
2019,12,06,04,12,00,77.2,,,,,,,,,,,,,,
2019,12,06,04,13,00,75.0,,,,,,,,,,,,,,
2019,12,06,04,14,00,75.5,,,,,,,,,,,,,,
2019,12,06,04,15,00,75.4,,,,,,,,,,,,,,
2019,12,06,04,16,00,76.1,,,,,,,,,,,,,,
2019,12,06,04,17,00,81.4,,,,,,,,,,,,,,
2019,12,06,04,18,00,80.2,,,,,,,,,,,,,,
2019,12,06,04,19,00,79.0,,,,,,,,,,,,,,
2019,12,06,04,20,00,80.2,,,,,,,,,,,,,,
2019,12,06,04,21,00,80.5,,,,,,,,,,,,,,
2019,12,06,04,22,00,79.9,,,,,,,,,,,,,,
2019,12,06,04,23,00,79.5,,,,,,,,,,,,,,
2019,12,06,04,24,00,79.3,,,,,,,,,,,,,,
2019,12,06,04,25,00,77.8,,,,,,,,,,,,,,
2019,12,06,04,26,00,77.0,,,,,,,,,,,,,,
2019,12,06,04,27,00,77.7,,,,,,,,,,,,,,
2019,12,06,04,28,00,79.2,,,,,,,,,,,,,,
2019,12,06,04,29,00,79.8,,,,,,,,,,,,,,
2019,12,06,04,30,00,80.6,,,,,,,,,,,,,,
2019,12,06,04,31,00,80.1,,,,,,,,,,,,,,
2019,12,06,04,32,00,80.8,,,,,,,,,,,,,,
2019,12,06,04,33,00,84.3,,,,,,,,,,,,,,
2019,12,06,04,34,00,90.1,,,,,,,,,,,,,,
2019,12,06,04,35,00,88.4,,,,,,,,,,,,,,
2019,12,06,04,36,00,89.6,,,,,,,,,,,,,,
2019,12,06,04,37,00,88.0,,,,,,,,,,,,,,
2019,12,06,04,38,00,89.8,,,,,,,,,,,,,,
2019,12,06,04,39,00,99.7,,,,,,,,,,,,,,
2019,12,06,04,40,00,108.5,,,,,,,,,,,,,,
2019,12,06,04,41,00,82.2,,,,,,,,,,,,,,
2019,12,06,04,42,00,77.8,,,,,,,,,,,,,,
2019,12,06,04,43,00,74.8,,,,,,,,,,,,,,
2019,12,06,04,44,00,74.8,,,,,,,,,,,,,,
2019,12,06,04,45,00,74.1,,,,,,,,,,,,,,
2019,12,06,04,46,00,73.9,,,,,,,,,,,,,,
2019,12,06,04,47,00,75.6,,,,,,,,,,,,,,
2019,12,06,04,48,00,77.4,,,,,,,,,,,,,,
2019,12,06,04,49,00,78.6,,,,,,,,,,,,,,
2019,12,06,04,50,00,80.0,,,,,,,,,,,,,,
2019,12,06,04,51,00,80.9,,,,,,,,,,,,,,
2019,12,06,04,52,00,90.4,,,,,,,,,,,,,,
2019,12,06,04,53,00,83.0,,,,,,,,,,,,,,
2019,12,06,04,54,00,79.8,,,,,,,,,,,,,,
2019,12,06,04,55,00,79.1,,,,,,,,,,,,,,
2019,12,06,04,56,00,80.0,,,,,,,,,,,,,,
2019,12,06,04,57,00,80.1,,,,,,,,,,,,,,
2019,12,06,04,58,00,83.7,,,,,,,,,,,,,,
2019,12,06,04,59,00,86.0,,,,,,,,,,,,,,
2019,12,06,05,00,00,93.0,,,,,,,,,,,,,,
2019,12,06,05,01,00,99.0,,,,,,,,,,,,,,
2019,12,06,05,02,00,98.9,,,,,,,,,,,,,,
2019,12,06,05,03,00,95.4,,,,,,,,,,,,,,
2019,12,06,05,04,00,89.2,,,,,,,,,,,,,,
2019,12,06,05,05,00,84.9,,,,,,,,,,,,,,
2019,12,06,05,06,00,81.2,,,,,,,,,,,,,,
2019,12,06,05,07,00,80.4,,,,,,,,,,,,,,
2019,12,06,05,08,00,80.6,,,,,,,,,,,,,,
2019,12,06,05,09,00,80.7,,,,,,,,,,,,,,
2019,12,06,05,10,00,80.7,,,,,,,,,,,,,,
2019,12,06,05,11,00,80.8,,,,,,,,,,,,,,
2019,12,06,05,12,00,81.1,,,,,,,,,,,,,,
2019,12,06,05,13,00,87.2,,,,,,,,,,,,,,
2019,12,06,05,14,00,90.3,,,,,,,,,,,,,,
2019,12,06,05,15,00,93.4,,,,,,,,,,,,,,
2019,12,06,05,16,00,86.5,,,,,,,,,,,,,,
2019,12,06,05,17,00,87.7,,,,,,,,,,,,,,
2019,12,06,05,18,00,83.8,,,,,,,,,,,,,,
2019,12,06,05,19,00,88.1,,,,,,,,,,,,,,
2019,12,06,05,20,00,83.6,,,,,,,,,,,,,,
2019,12,06,05,21,00,82.1,,,,,,,,,,,,,,
2019,12,06,05,22,00,85.7,,,,,,,,,,,,,,
2019,12,06,05,23,00,80.9,,,,,,,,,,,,,,
2019,12,06,05,24,00,81.2,,,,,,,,,,,,,,
2019,12,06,05,25,00,80.4,,,,,,,,,,,,,,
2019,12,06,05,26,00,80.3,,,,,,,,,,,,,,
2019,12,06,05,27,00,80.9,,,,,,,,,,,,,,
2019,12,06,05,28,00,82.5,,,,,,,,,,,,,,
2019,12,06,05,29,00,92.2,,,,,,,,,,,,,,
2019,12,06,05,30,00,81.2,,,,,,,,,,,,,,
2019,12,06,05,31,00,77.5,,,,,,,,,,,,,,
2019,12,06,05,32,00,78.1,,,,,,,,,,,,,,
2019,12,06,05,33,00,79.2,,,,,,,,,,,,,,
2019,12,06,05,34,00,78.4,,,,,,,,,,,,,,
2019,12,06,05,35,00,77.6,,,,,,,,,,,,,,
2019,12,06,05,36,00,75.2,,,,,,,,,,,,,,
2019,12,06,05,37,00,,,,,,,,,,,,,,,
2019,12,06,05,38,00,,,,,,,,,,,,,,,
2019,12,06,05,39,00,73.5,,,,,,,,,,,,,,
2019,12,06,05,40,00,75.8,,,,,,,,,,,,,,
2019,12,06,05,41,00,72.7,,,,,,,,,,,,,,
2019,12,06,05,42,00,73.2,,,,,,,,,,,,,,
2019,12,06,05,43,00,77.1,,,,,,,,,,,,,,
2019,12,06,05,44,00,76.9,,,,,,,,,,,,,,
2019,12,06,05,45,00,76.2,,,,,,,,,,,,,,
2019,12,06,05,46,00,78.7,,,,,,,,,,,,,,
2019,12,06,05,47,00,80.2,,,,,,,,,,,,,,
2019,12,06,05,48,00,83.0,,,,,,,,,,,,,,
2019,12,06,05,49,00,84.7,,,,,,,,,,,,,,
2019,12,06,05,50,00,85.2,,,,,,,,,,,,,,
2019,12,06,05,51,00,82.2,,,,,,,,,,,,,,
2019,12,06,05,52,00,84.7,,,,,,,,,,,,,,
2019,12,06,05,53,00,88.5,,,,,,,,,,,,,,
2019,12,06,05,54,00,81.2,,,,,,,,,,,,,,
2019,12,06,05,55,00,86.2,,,,,,,,,,,,,,
2019,12,06,05,56,00,85.1,,,,,,,,,,,,,,
2019,12,06,05,57,00,83.4,,,,,,,,,,,,,,
2019,12,06,05,58,00,83.0,,,,,,,,,,,,,,
2019,12,06,05,59,00,78.5,,,,,,,,,,,,,,
2019,12,06,06,00,00,77.3,,,,,,,,,,,,,,
2019,12,06,06,01,00,75.3,,,,,,,,,,,,,,
2019,12,06,06,02,00,77.5,,,,,,,,,,,,,,
2019,12,06,06,03,00,77.6,,,,,,,,,,,,,,
2019,12,06,06,04,00,79.9,,,,,,,,,,,,,,
2019,12,06,06,05,00,79.4,,,,,,,,,,,,,,
2019,12,06,06,06,00,79.7,,,,,,,,,,,,,,
2019,12,06,06,07,00,81.6,,,,,,,,,,,,,,
2019,12,06,06,08,00,81.1,,,,,,,,,,,,,,
2019,12,06,06,09,00,80.2,,,,,,,,,,,,,,
2019,12,06,06,10,00,80.8,,,,,,,,,,,,,,
2019,12,06,06,11,00,80.9,,,,,,,,,,,,,,
2019,12,06,06,12,00,80.3,,,,,,,,,,,,,,
2019,12,06,06,13,00,81.2,,,,,,,,,,,,,,
2019,12,06,06,14,00,79.7,,,,,,,,,,,,,,
2019,12,06,06,15,00,79.2,,,,,,,,,,,,,,
2019,12,06,06,16,00,78.3,,,,,,,,,,,,,,
2019,12,06,06,17,00,80.9,,,,,,,,,,,,,,
2019,12,06,06,18,00,80.4,,,,,,,,,,,,,,
2019,12,06,06,19,00,79.7,,,,,,,,,,,,,,
2019,12,06,06,20,00,78.6,,,,,,,,,,,,,,
2019,12,06,06,21,00,78.1,,,,,,,,,,,,,,
2019,12,06,06,22,00,79.6,,,,,,,,,,,,,,
2019,12,06,06,23,00,81.1,,,,,,,,,,,,,,
2019,12,06,06,24,00,105.2,,,,,,,,,,,,,,
2019,12,06,06,25,00,112.2,,,,,,,,,,,,,,
2019,12,06,06,26,00,106.0,,,,,,,,,,,,,,
2019,12,06,06,27,00,107.7,,,,,,,,,,,,,,
2019,12,06,06,28,00,104.0,,,,,,,,,,,,,,
2019,12,06,06,29,00,103.1,,,,,,,,,,,,,,
2019,12,06,06,30,00,100.5,,,,,,,,,,,,,,
2019,12,06,06,31,00,110.2,,,,,,,,,,,,,,
2019,12,06,06,32,00,117.6,,,,,,,,,,,,,,
2019,12,06,06,33,00,112.2,,,,,,,,,,,,,,
2019,12,06,06,34,00,92.4,,,,,,,,,,,,,,
2019,12,06,06,35,00,81.4,,,,,,,,,,,,,,
2019,12,06,06,36,00,97.0,,,,,,,,,,,,,,
2019,12,06,06,37,00,106.5,,,,,,,,,,,,,,
2019,12,06,06,38,00,96.9,,,,,,,,,,,,,,
2019,12,06,06,39,00,91.6,,,,,,,,,,,,,,
2019,12,06,06,40,00,95.5,,,,,,,,,,,,,,
2019,12,06,06,41,00,103.1,,,,,,,,,,,,,,
2019,12,06,06,42,00,95.9,,,,,,,,,,,,,,
2019,12,06,06,43,00,87.2,,,,,,,,,,,,,,
2019,12,06,06,44,00,87.6,,,,,,,,,,,,,,
2019,12,06,06,45,00,88.1,,,,,,,,,,,,,,
2019,12,06,06,46,00,98.0,,,,,,,,,,,,,,
2019,12,06,06,47,00,102.1,,,,,,,,,,,,,,
2019,12,06,06,48,00,104.9,,,,,,,,,,,,,,
2019,12,06,06,49,00,105.6,,,,,,,,,,,,,,
2019,12,06,06,50,00,104.5,,,,,,,,,,,,,,
2019,12,06,06,51,00,102.6,,,,,,,,,,,,,,
2019,12,06,06,52,00,100.2,,,,,,,,,,,,,,
2019,12,06,06,53,00,110.3,,,,,,,,,,,,,,
2019,12,06,06,54,00,105.7,,,,,,,,,,,,,,
2019,12,06,06,55,00,104.9,,,,,,,,,,,,,,
2019,12,06,06,56,00,110.2,,,,,,,,,,,,,,
2019,12,06,06,57,00,116.1,,,,,,,,,,,,,,
2019,12,06,06,58,00,118.0,,,,,,,,,,,,,,
2019,12,06,06,59,00,123.0,,,,,,,,,,,,,,
2019,12,06,07,00,00,124.0,,,,,,,,,,,,,,
2019,12,06,07,01,00,121.4,,,,,,,,,,,,,,
2019,12,06,07,02,00,112.4,,,,,,,,,,,,,,
2019,12,06,07,03,00,112.7,,,,,,,,,,,,,,
2019,12,06,07,04,00,105.8,,,,,,,,,,,,,,
2019,12,06,07,05,00,106.2,,,,,,,,,,,,,,
2019,12,06,07,06,00,108.9,,,,,,,,,,,,,,
2019,12,06,07,07,00,103.8,,,,,,,,,,,,,,
2019,12,06,07,08,00,94.6,,,,,,,,,,,,,,
2019,12,06,07,09,00,88.5,,,,,,,,,,,,,,
2019,12,06,07,10,00,89.9,,,,,,,,,,,,,,
2019,12,06,07,11,00,92.8,,,,,,,,,,,,,,
2019,12,06,07,12,00,97.7,,,,,,,,,,,,,,
2019,12,06,07,13,00,108.9,,,,,,,,,,,,,,
2019,12,06,07,14,00,100.8,,,,,,,,,,,,,,
2019,12,06,07,15,00,80.5,,,,,,,,,,,,,,
2019,12,06,07,16,00,80.7,,,,,,,,,,,,,,
2019,12,06,07,17,00,80.9,,,,,,,,,,,,,,
2019,12,06,07,18,00,81.2,,,,,,,,,,,,,,
2019,12,06,07,19,00,82.2,,,,,,,,,,,,,,
2019,12,06,07,20,00,90.5,,,,,,,,,,,,,,
2019,12,06,07,21,00,97.0,,,,,,,,,,,,,,
2019,12,06,07,22,00,92.9,,,,,,,,,,,,,,
2019,12,06,07,23,00,108.0,,,,,,,,,,,,,,
2019,12,06,07,24,00,107.5,,,,,,,,,,,,,,
2019,12,06,07,25,00,114.9,,,,,,,,,,,,,,
2019,12,06,07,26,00,114.4,,,,,,,,,,,,,,
2019,12,06,07,27,00,106.7,,,,,,,,,,,,,,
2019,12,06,07,28,00,106.7,,,,,,,,,,,,,,
2019,12,06,07,29,00,111.5,,,,,,,,,,,,,,
2019,12,06,07,30,00,112.1,,,,,,,,,,,,,,
2019,12,06,07,31,00,121.2,,,,,,,,,,,,,,
2019,12,06,07,32,00,119.2,,,,,,,,,,,,,,
2019,12,06,07,33,00,101.4,,,,,,,,,,,,,,
2019,12,06,07,34,00,99.7,,,,,,,,,,,,,,
2019,12,06,07,35,00,89.8,,,,,,,,,,,,,,
2019,12,06,07,36,00,81.3,,,,,,,,,,,,,,
2019,12,06,07,37,00,,,,,,,,,,,,,,,
2019,12,06,07,38,00,,,,,,,,,,,,,,,
2019,12,06,07,39,00,86.2,,,,,,,,,,,,,,
2019,12,06,07,40,00,100.9,,,,,,,,,,,,,,
2019,12,06,07,41,00,111.1,,,,,,,,,,,,,,
2019,12,06,07,42,00,114.8,,,,,,,,,,,,,,
2019,12,06,07,43,00,136.1,,,,,,,,,,,,,,
2019,12,06,07,44,00,108.3,,,,,,,,,,,,,,
2019,12,06,07,45,00,102.4,,,,,,,,,,,,,,
2019,12,06,07,46,00,88.5,,,,,,,,,,,,,,
2019,12,06,07,47,00,103.9,,,,,,,,,,,,,,
2019,12,06,07,48,00,108.2,,,,,,,,,,,,,,
2019,12,06,07,49,00,90.9,,,,,,,,,,,,,,
2019,12,06,07,50,00,86.4,,,,,,,,,,,,,,
2019,12,06,07,51,00,95.2,,,,,,,,,,,,,,
2019,12,06,07,52,00,82.8,,,,,,,,,,,,,,
2019,12,06,07,53,00,82.0,,,,,,,,,,,,,,
2019,12,06,07,54,00,82.1,,,,,,,,,,,,,,
2019,12,06,07,55,00,84.1,,,,,,,,,,,,,,
2019,12,06,07,56,00,82.8,,,,,,,,,,,,,,
2019,12,06,07,57,00,100.8,,,,,,,,,,,,,,
2019,12,06,07,58,00,99.1,,,,,,,,,,,,,,
2019,12,06,07,59,00,92.6,,,,,,,,,,,,,,
2019,12,06,08,00,00,84.1,,,,,,,,,,,,,,
2019,12,06,08,01,00,85.4,,,,,,,,,,,,,,
2019,12,06,08,02,00,92.0,,,,,,,,,,,,,,
2019,12,06,08,03,00,97.8,,,,,,,,,,,,,,
2019,12,06,08,04,00,98.3,,,,,,,,,,,,,,
2019,12,06,08,05,00,96.3,,,,,,,,,,,,,,
2019,12,06,08,06,00,96.3,,,,,,,,,,,,,,
2019,12,06,08,07,00,102.9,,,,,,,,,,,,,,
2019,12,06,08,08,00,104.1,,,,,,,,,,,,,,
2019,12,06,08,09,00,101.8,,,,,,,,,,,,,,
2019,12,06,08,10,00,104.6,,,,,,,,,,,,,,
2019,12,06,08,11,00,105.8,,,,,,,,,,,,,,
2019,12,06,08,12,00,107.6,,,,,,,,,,,,,,
2019,12,06,08,13,00,108.6,,,,,,,,,,,,,,
2019,12,06,08,14,00,107.2,,,,,,,,,,,,,,
2019,12,06,08,15,00,114.0,,,,,,,,,,,,,,
2019,12,06,08,16,00,112.5,,,,,,,,,,,,,,
2019,12,06,08,17,00,117.0,,,,,,,,,,,,,,
2019,12,06,08,18,00,112.0,,,,,,,,,,,,,,
2019,12,06,08,19,00,110.2,,,,,,,,,,,,,,
2019,12,06,08,20,00,107.4,,,,,,,,,,,,,,
2019,12,06,08,21,00,104.2,,,,,,,,,,,,,,
2019,12,06,08,22,00,106.7,,,,,,,,,,,,,,
2019,12,06,08,23,00,120.6,,,,,,,,,,,,,,
2019,12,06,08,24,00,112.4,,,,,,,,,,,,,,
2019,12,06,08,25,00,109.3,,,,,,,,,,,,,,
2019,12,06,08,26,00,121.1,,,,,,,,,,,,,,
2019,12,06,08,27,00,120.1,,,,,,,,,,,,,,
2019,12,06,08,28,00,115.6,,,,,,,,,,,,,,
2019,12,06,08,29,00,104.5,,,,,,,,,,,,,,
2019,12,06,08,30,00,108.6,,,,,,,,,,,,,,
2019,12,06,08,31,00,111.6,,,,,,,,,,,,,,
2019,12,06,08,32,00,117.4,,,,,,,,,,,,,,
2019,12,06,08,33,00,137.3,,,,,,,,,,,,,,
2019,12,06,08,34,00,141.6,,,,,,,,,,,,,,
2019,12,06,08,35,00,136.1,,,,,,,,,,,,,,
2019,12,06,08,36,00,121.2,,,,,,,,,,,,,,
2019,12,06,08,37,00,118.5,,,,,,,,,,,,,,
2019,12,06,08,38,00,117.7,,,,,,,,,,,,,,
2019,12,06,08,39,00,113.1,,,,,,,,,,,,,,
2019,12,06,08,40,00,113.6,,,,,,,,,,,,,,
2019,12,06,08,41,00,109.7,,,,,,,,,,,,,,
2019,12,06,08,42,00,117.7,,,,,,,,,,,,,,
2019,12,06,08,43,00,113.2,,,,,,,,,,,,,,
2019,12,06,08,44,00,106.9,,,,,,,,,,,,,,
2019,12,06,08,45,00,104.6,,,,,,,,,,,,,,
2019,12,06,08,46,00,104.1,,,,,,,,,,,,,,
2019,12,06,08,47,00,107.0,,,,,,,,,,,,,,
2019,12,06,08,48,00,105.1,,,,,,,,,,,,,,
2019,12,06,08,49,00,109.7,,,,,,,,,,,,,,
2019,12,06,08,50,00,106.7,,,,,,,,,,,,,,
2019,12,06,08,51,00,103.9,,,,,,,,,,,,,,
2019,12,06,08,52,00,107.9,,,,,,,,,,,,,,
2019,12,06,08,53,00,121.9,,,,,,,,,,,,,,
2019,12,06,08,54,00,121.1,,,,,,,,,,,,,,
2019,12,06,08,55,00,131.5,,,,,,,,,,,,,,
2019,12,06,08,56,00,132.7,,,,,,,,,,,,,,
2019,12,06,08,57,00,127.2,,,,,,,,,,,,,,
2019,12,06,08,58,00,126.3,,,,,,,,,,,,,,
2019,12,06,08,59,00,124.3,,,,,,,,,,,,,,
2019,12,06,09,00,00,134.1,,,,,,,,,,,,,,
2019,12,06,09,01,00,133.6,,,,,,,,,,,,,,
2019,12,06,09,02,00,124.4,,,,,,,,,,,,,,
2019,12,06,09,03,00,123.5,,,,,,,,,,,,,,
2019,12,06,09,04,00,123.5,,,,,,,,,,,,,,
2019,12,06,09,05,00,124.1,,,,,,,,,,,,,,
2019,12,06,09,06,00,129.5,,,,,,,,,,,,,,
2019,12,06,09,07,00,131.2,,,,,,,,,,,,,,
2019,12,06,09,08,00,129.8,,,,,,,,,,,,,,
2019,12,06,09,09,00,127.9,,,,,,,,,,,,,,
2019,12,06,09,10,00,122.8,,,,,,,,,,,,,,
2019,12,06,09,11,00,125.6,,,,,,,,,,,,,,
2019,12,06,09,12,00,126.3,,,,,,,,,,,,,,
2019,12,06,09,13,00,125.7,,,,,,,,,,,,,,
2019,12,06,09,14,00,133.2,,,,,,,,,,,,,,
2019,12,06,09,15,00,126.3,,,,,,,,,,,,,,
2019,12,06,09,16,00,129.5,,,,,,,,,,,,,,
2019,12,06,09,17,00,130.6,,,,,,,,,,,,,,
2019,12,06,09,18,00,133.4,,,,,,,,,,,,,,
2019,12,06,09,19,00,132.1,,,,,,,,,,,,,,
2019,12,06,09,20,00,122.5,,,,,,,,,,,,,,
2019,12,06,09,21,00,122.1,,,,,,,,,,,,,,
2019,12,06,09,22,00,121.7,,,,,,,,,,,,,,
2019,12,06,09,23,00,118.5,,,,,,,,,,,,,,
2019,12,06,09,24,00,115.5,,,,,,,,,,,,,,
2019,12,06,09,25,00,117.6,,,,,,,,,,,,,,
2019,12,06,09,26,00,120.2,,,,,,,,,,,,,,
2019,12,06,09,27,00,120.7,,,,,,,,,,,,,,
2019,12,06,09,28,00,120.6,,,,,,,,,,,,,,
2019,12,06,09,29,00,122.8,,,,,,,,,,,,,,
2019,12,06,09,30,00,123.2,,,,,,,,,,,,,,
2019,12,06,09,31,00,120.9,,,,,,,,,,,,,,
2019,12,06,09,32,00,128.7,,,,,,,,,,,,,,
2019,12,06,09,33,00,126.4,,,,,,,,,,,,,,
2019,12,06,09,34,00,127.7,,,,,,,,,,,,,,
2019,12,06,09,35,00,127.4,,,,,,,,,,,,,,
2019,12,06,09,36,00,124.8,,,,,,,,,,,,,,
2019,12,06,09,37,00,127.1,,,,,,,,,,,,,,
2019,12,06,09,38,00,127.6,,,,,,,,,,,,,,
2019,12,06,09,39,00,150.5,,,,,,,,,,,,,,
2019,12,06,09,40,00,159.2,,,,,,,,,,,,,,
2019,12,06,09,41,00,151.8,,,,,,,,,,,,,,
2019,12,06,09,42,00,153.7,,,,,,,,,,,,,,
2019,12,06,09,43,00,154.9,,,,,,,,,,,,,,
2019,12,06,09,44,00,153.9,,,,,,,,,,,,,,
2019,12,06,09,45,00,153.5,,,,,,,,,,,,,,
2019,12,06,09,46,00,154.2,,,,,,,,,,,,,,
2019,12,06,09,47,00,141.9,,,,,,,,,,,,,,
2019,12,06,09,48,00,133.6,,,,,,,,,,,,,,
2019,12,06,09,49,00,134.7,,,,,,,,,,,,,,
2019,12,06,09,50,00,153.7,,,,,,,,,,,,,,
2019,12,06,09,51,00,152.7,,,,,,,,,,,,,,
2019,12,06,09,52,00,142.9,,,,,,,,,,,,,,
2019,12,06,09,53,00,133.0,,,,,,,,,,,,,,
2019,12,06,09,54,00,138.1,,,,,,,,,,,,,,
2019,12,06,09,55,00,121.5,,,,,,,,,,,,,,